[[{"header":{"parameterUnit":"m.s-1","parameterCategory":1,"la1":30.2991,"la2":30.254,"lo1":-89.0895,"lo2":-89.0444,"dy":0.0017,"dx":0.0017,"nx":28,"ny":28,"refTime":"2025-03-13T03:00:00:Z","depth":0,"parameterNumber":2,"parameterNumberName":"U-component_of_WINDS"},"data":[0,0,0,0,0,0,0,0,0,0,0,0,0,0,0,0,0,0,0,0,0,0,0,0,0,0,0,0,0,0,0,0,0,0,0,0,0,0,0,0,0,0,0,0,0,0,0,0,0,0,0,0,0,0,0,0,0,0,-3.109,-3.1091,0,-3.1163,-3.1164,-3.1165,-3.1165,-3.1164,-3.1164,-3.1163,-3.1238,-3.124,-3.1243,0,0,0,0,0,0,0,0,0,0,0,0,0,-3.0952,-3.0954,-3.109,-3.1091,-3.1092,-3.1163,-3.1164,-3.1165,-3.1166,-3.1164,-3.1163,-3.1162,-3.1237,-3.124,-3.1243,0,0,0,0,0,0,0,0,0,0,0,0,0,-3.1017,-3.0955,-3.109,-3.1101,-3.1103,-3.1163,-3.1164,-3.1166,-3.1166,-3.1164,-3.1163,-3.1162,-3.1236,-3.124,-3.1244,-3.1299,0,0,-3.1257,-3.1259,0,0,0,0,0,0,0,0,-3.1014,-3.1022,-3.1098,-3.11,-3.1102,-3.1154,-3.1143,-3.121,-3.1166,-3.1142,-3.1163,-3.1161,-3.1211,-3.1217,-3.1234,-3.1302,-3.1305,-3.1258,-3.126,-3.1262,-3.1263,0,0,0,0,0,0,0,-3.1009,-3.1019,-3.1119,-3.1099,-3.1102,-3.1102,-3.111,-3.1156,-3.1183,-3.1144,-3.1144,-3.1153,-3.1212,-3.123,-3.1236,-3.1307,-3.1257,-3.1261,-3.1264,-3.1266,-3.1424,-3.1426,0,0,0,0,0,0,-3.1002,-3.1015,-3.1117,-3.1121,-3.1053,-3.1106,-3.1115,-3.1139,-3.1183,-3.1188,-3.1154,-3.1152,-3.1223,-3.1231,-3.1238,-3.1305,-3.1262,-3.1266,-3.1268,-3.1422,-3.1424,-3.1426,0,0,0,0,0,0,-3.0999,-3.1011,-3.1114,-3.1069,-3.1082,-3.111,-3.1137,-3.1141,-3.1159,-3.119,-3.1195,-3.1167,-3.1222,-3.1232,-3.1284,-3.1308,-3.1268,-3.1272,-3.142,-3.1423,-3.1425,-3.1439,0,0,0,0,0,0,-3.0995,-3.101,-3.1031,-3.1069,-3.1084,-3.1158,-3.1138,-3.1143,-3.1166,-3.1165,-3.1204,-3.1209,-3.1222,-3.1277,-3.1288,-3.1313,-3.1275,-3.1418,-3.1422,-3.1424,-3.1437,-3.1442,-3.1446,0,0,0,0,0,-3.099,-3.1032,-3.1032,-3.1044,-3.1111,-3.1159,-3.1168,-3.1181,-3.1168,-3.119,-3.121,-3.1208,-3.1304,-3.1283,-3.1295,-3.1321,-3.1417,-3.1421,-3.1424,-3.1435,-3.1441,-3.1446,0,0,0,0,0,0,-3.0996,-3.1037,-3.1038,-3.1093,-3.1123,-3.1159,-3.1186,-3.1188,-3.1222,-3.1219,-3.1235,-3.1244,-3.1295,-3.1314,-3.1289,-3.1377,-3.1359,-3.1365,-3.1363,-3.1369,-3.1373,-3.1367,-3.1279,0,0,0,0,0,-3.1004,-3.1039,-3.1074,-3.1119,-3.1134,-3.1158,-3.1179,-3.1188,-3.1219,-3.1232,-3.1256,-3.1286,-3.1323,-3.1347,-3.1383,-3.144,-3.1449,-3.1465,-3.1469,-3.1473,-3.1478,-3.1509,-3.1517,-3.1438,-3.1438,-3.1438,0,0,-3.102,-3.1047,-3.1068,-3.1121,-3.1145,-3.1182,-3.1168,-3.1208,-3.1235,-3.1238,-3.1287,-3.1307,-3.1342,-3.1396,-3.1422,-3.1413,-3.1502,-3.1478,-3.148,-3.1483,-3.1514,-3.1521,-3.1528,-3.1441,-3.144,-3.144,0,0,-3.1068,-3.1092,-3.1132,-3.1157,-3.1193,-3.1209,-3.1219,-3.1256,-3.1268,-3.1319,-3.1321,-3.1355,-3.1418,-3.1443,-3.1465,-3.1524,-3.1523,-3.1535,-3.1559,-3.159,-3.1596,-3.1602,-3.1622,-3.1629,-3.154,-3.154,-3.154,0,-3.1083,-3.1138,-3.1153,-3.1193,-3.1216,-3.122,-3.1261,-3.1284,-3.1331,-3.1347,-3.1337,-3.1417,-3.1442,-3.1502,-3.1516,-3.1534,-3.1545,-3.153,-3.1594,-3.16,-3.1605,-3.1625,-3.1632,-3.1541,-3.1541,-3.1541,-3.1541,0,-3.1155,-3.1194,-3.1222,-3.1267,-3.1293,-3.1334,-3.1355,-3.138,-3.1386,-3.1403,-3.1455,-3.1484,-3.1526,-3.1542,-3.1548,-3.1603,-3.1597,-3.1591,-3.1572,-3.1613,-3.1632,-3.164,-3.1543,-3.1542,-3.1542,-3.1542,0,0,-3.1207,-3.126,-3.127,-3.1291,-3.1332,-3.1362,-3.1403,-3.1444,-3.1465,-3.1498,-3.1533,-3.1587,-3.1582,-3.1606,-3.1615,-3.1642,-3.1687,-3.1633,-3.1634,-3.1641,-3.1749,-3.1752,-3.1761,-3.1687,-3.1689,-3.169,-3.1746,0,-3.1259,-3.1331,-3.1346,-3.1408,-3.1444,-3.1449,-3.1485,-3.1515,-3.1532,-3.1565,-3.1584,-3.1622,-3.1613,-3.1627,-3.1654,-3.1675,-3.1708,-3.1672,-3.1719,-3.1721,-3.1709,-3.1771,-3.1775,-3.1826,-3.1753,-3.1754,-3.1755,0,-3.1328,-3.1362,-3.1428,-3.1465,-3.1481,-3.1513,-3.1552,-3.1584,-3.1617,-3.1628,-3.1656,-3.1663,-3.1706,-3.1687,-3.1746,-3.1721,-3.1742,-3.1756,-3.1758,-3.1762,-3.1739,-3.1775,-3.1842,-3.185,-3.1767,-3.1766,-3.1765,0,-3.1358,-3.1421,-3.1469,-3.1486,-3.1531,-3.1553,-3.1573,-3.1605,-3.1629,-3.1664,-3.1679,-3.1719,-3.174,-3.177,-3.1788,-3.1772,-3.1846,-3.1829,-3.1856,-3.1856,-3.187,-3.1869,-3.194,-3.1885,-3.1885,-3.1885,-3.1885,0,-3.1414,-3.1454,-3.1483,-3.1512,-3.1557,-3.1575,-3.1619,-3.1639,-3.1668,-3.1701,-3.1709,-3.174,-3.1762,-3.1796,-3.181,-3.1857,-3.1867,-3.1877,-3.188,-3.1876,-3.1874,-3.1888,-3.1885,-3.1887,-3.1887,-3.1886,-3.1886,0,-3.1455,-3.1476,-3.1528,-3.1566,-3.1577,-3.1608,-3.1641,-3.167,-3.1688,-3.173,-3.1741,-3.1769,-3.181,-3.1831,-3.1882,-3.1892,-3.1945,-3.1946,-3.1933,-3.1934,-3.196,-3.1957,-3.2042,-3.2054,-3.1992,-3.1993,-3.1993,0,-3.1488,-3.1519,-3.1561,-3.1583,-3.1603,-3.164,-3.1665,-3.1683,-3.1709,-3.175,-3.1774,-3.1816,-3.1849,-3.1915,-3.194,-3.1979,-3.1981,-3.2009,-3.1987,-3.1982,-3.1981,-3.1978,-3.1981,-3.2012,-3.2012,-3.2013,-3.2013,0,-3.1545,-3.1554,-3.1589,-3.1628,-3.1657,-3.1688,-3.1719,-3.1738,-3.1762,-3.179,-3.1832,-3.1858,-3.1911,-3.1952,-3.1993,-3.2014,-3.2018,-3.202,-3.2028,-3.2023,-3.2014,-3.2019,-3.1942,-3.2018,-3.2017,-3.2017,-3.2017,-3.2016,-3.1583,-3.161,-3.1644,-3.1683,-3.1708,-3.1737,-3.1766,-3.1788,-3.1823,-3.1867,-3.1876,-3.1921,-3.1955,-3.2011,-3.2033,-3.2068,-3.2062,-3.2074,-3.2077,-3.208,-3.208,-3.201,-3.2076,-3.2076,-3.2076,-3.2076,-3.2076,0,-3.1639,-3.1661,-3.1697,-3.174,-3.1771,-3.1772,-3.1807,-3.1832,-3.1871,-3.1902,-3.1936,-3.1984,-3.2025,-3.2053,-3.2094,-3.2117,-3.212,-3.2127,-3.2125,-3.213,-3.2084,-3.2072,-3.2124,-3.2124,-3.2124,-3.2124,-3.2124,-3.2124,-3.1672,-3.1719,-3.1732,-3.1792,-3.1814,-3.1857,-3.1877,-3.1904,-3.1929,-3.1983,-3.2016,-3.2035,-3.2065,-3.2108,-3.2145,-3.2153,-3.2167,-3.2175,-3.2182,-3.2138,-3.2133,-3.2128,-3.2117,-3.2178,-3.2178,-3.2225,-3.2225,-3.2226]},{"header":{"parameterUnit":"m.s-1","parameterCategory":1,"la1":30.2991,"la2":30.254,"lo1":-89.0895,"lo2":-89.0444,"dy":0.0017,"dx":0.0017,"nx":28,"ny":28,"refTime":"2025-03-13T03:00:00:Z","depth":0,"parameterNumber":3,"parameterNumberName":"V-component_of_WINDS"},"data":[0,0,0,0,0,0,0,0,0,0,0,0,0,0,0,0,0,0,0,0,0,0,0,0,0,0,0,0,0,0,0,0,0,0,0,0,0,0,0,0,0,0,0,0,0,0,0,0,0,0,0,0,0,0,0,0,0,0,3.2213,3.2215,0,3.2342,3.2344,3.2345,3.2363,3.2361,3.236,3.2359,3.249,3.2494,3.2499,0,0,0,0,0,0,0,0,0,0,0,0,0,3.1982,3.1986,3.2213,3.2215,3.2216,3.2342,3.2344,3.2346,3.2363,3.2361,3.236,3.2358,3.2488,3.2493,3.2499,0,0,0,0,0,0,0,0,0,0,0,0,0,3.2094,3.1987,3.2213,3.224,3.2244,3.2342,3.2344,3.2346,3.2363,3.2361,3.2359,3.2358,3.2486,3.2493,3.25,3.2579,0,0,3.2521,3.2524,0,0,0,0,0,0,0,0,3.2087,3.2102,3.2235,3.2238,3.2243,3.2334,3.231,3.2424,3.2363,3.2318,3.2359,3.2357,3.2439,3.245,3.2478,3.2585,3.2591,3.2522,3.2526,3.2529,3.2531,0,0,0,0,0,0,0,3.2079,3.2097,3.2264,3.2236,3.2242,3.2246,3.226,3.2332,3.2387,3.2322,3.2323,3.2338,3.2441,3.2471,3.2481,3.2593,3.2521,3.2527,3.2532,3.2534,3.2774,3.2776,0,0,0,0,0,0,3.2067,3.209,3.226,3.2268,3.2159,3.2252,3.2267,3.2307,3.2386,3.2397,3.234,3.2339,3.2461,3.2473,3.2486,3.2586,3.2529,3.2535,3.2539,3.2772,3.2774,3.2777,0,0,0,0,0,0,3.2062,3.2082,3.2255,3.218,3.2202,3.2258,3.2302,3.231,3.2341,3.24,3.241,3.236,3.246,3.2476,3.2556,3.2591,3.2538,3.2545,3.2769,3.2772,3.2775,3.2786,0,0,0,0,0,0,3.2055,3.208,3.211,3.218,3.2206,3.2323,3.2304,3.2314,3.2353,3.2352,3.2422,3.2432,3.2459,3.2546,3.2563,3.26,3.255,3.2766,3.277,3.2774,3.2783,3.2789,3.2795,0,0,0,0,0,3.2047,3.2107,3.2112,3.2132,3.2245,3.2325,3.234,3.2371,3.2355,3.2387,3.2425,3.243,3.2584,3.2554,3.2574,3.2613,3.2764,3.2769,3.2774,3.278,3.2788,3.2795,0,0,0,0,0,0,3.2039,3.2117,3.2123,3.2208,3.226,3.2328,3.2369,3.2378,3.2435,3.2432,3.2467,3.2483,3.2562,3.2595,3.256,3.2695,3.2673,3.2682,3.2671,3.2679,3.2685,3.2676,3.2556,0,0,0,0,0,3.2048,3.2106,3.2171,3.224,3.2265,3.2313,3.2348,3.2368,3.2423,3.2445,3.2489,3.2542,3.2603,3.2642,3.2701,3.2787,3.2804,3.2824,3.2829,3.2834,3.2842,3.2893,3.2903,3.2793,3.2793,3.2793,0,0,3.2065,3.2115,3.215,3.2239,3.2282,3.2343,3.2331,3.2395,3.244,3.2454,3.2534,3.2568,3.263,3.2714,3.2753,3.2744,3.2876,3.284,3.2844,3.285,3.2899,3.291,3.2919,3.2796,3.2796,3.2795,0,0,3.213,3.2172,3.2236,3.2279,3.2344,3.2375,3.239,3.2458,3.2481,3.2562,3.2574,3.2628,3.2731,3.2776,3.2812,3.2894,3.2902,3.2912,3.2944,3.2993,3.3002,3.301,3.3042,3.3053,3.292,3.292,3.292,0,3.2144,3.2235,3.2267,3.2331,3.2371,3.2387,3.2453,3.2493,3.2574,3.2601,3.2589,3.2721,3.2763,3.2859,3.288,3.2907,3.2927,3.2906,3.2998,3.3007,3.3014,3.3045,3.3057,3.2921,3.2921,3.2921,3.292,0,3.2251,3.2314,3.2358,3.2437,3.2481,3.2545,3.2587,3.2628,3.2644,3.2676,3.2759,3.281,3.2881,3.2905,3.292,3.3004,3.2997,3.2991,3.297,3.3026,3.3056,3.3067,3.2922,3.2922,3.2922,3.2921,0,0,3.2315,3.2411,3.2427,3.2464,3.2538,3.2588,3.2653,3.2723,3.2759,3.2814,3.2871,3.2959,3.2955,3.2995,3.3016,3.3058,3.3124,3.3048,3.305,3.3062,3.3223,3.3229,3.3242,3.3128,3.313,3.3132,3.3218,0,3.2389,3.2508,3.2538,3.2639,3.27,3.2716,3.2773,3.2825,3.2857,3.2913,3.2948,3.3011,3.2999,3.3025,3.3067,3.3107,3.3157,3.31,3.3183,3.3185,3.317,3.3257,3.3263,3.3342,3.323,3.3232,3.3233,0,3.2493,3.2552,3.2659,3.2727,3.2753,3.2804,3.2873,3.2925,3.2984,3.3005,3.3051,3.3068,3.3138,3.3111,3.3209,3.317,3.3205,3.3229,3.3233,3.3244,3.3214,3.3273,3.3368,3.3381,3.3251,3.325,3.3249,0,3.2532,3.2638,3.2717,3.2748,3.2828,3.2864,3.2899,3.2956,3.2997,3.3056,3.3084,3.3149,3.3186,3.3237,3.3271,3.3248,3.3367,3.3343,3.3387,3.3387,3.3413,3.3412,3.3518,3.3431,3.3431,3.3431,3.3431,0,3.2614,3.268,3.2736,3.2785,3.2859,3.2894,3.2966,3.3002,3.3053,3.3109,3.3126,3.3178,3.3219,3.3277,3.3304,3.3383,3.3398,3.3417,3.3424,3.3418,3.3416,3.3443,3.344,3.3434,3.3433,3.3433,3.3432,0,3.2672,3.2712,3.28,3.2869,3.2888,3.294,3.2999,3.3048,3.308,3.3151,3.317,3.3221,3.3291,3.3329,3.3416,3.3434,3.3522,3.3525,3.3503,3.3507,3.355,3.3547,3.368,3.3701,3.3597,3.3598,3.3599,0,3.2724,3.2775,3.285,3.2889,3.2926,3.2988,3.3031,3.3066,3.311,3.3182,3.3222,3.3292,3.3351,3.3462,3.3507,3.3574,3.358,3.3622,3.359,3.3583,3.3584,3.3582,3.3589,3.3628,3.3629,3.363,3.3631,0,3.2811,3.2829,3.289,3.2958,3.3009,3.3064,3.3118,3.315,3.3194,3.3242,3.3314,3.336,3.345,3.352,3.3591,3.3627,3.3638,3.364,3.3655,3.365,3.3636,3.3647,3.3521,3.3637,3.3637,3.3636,3.3636,3.3636,3.287,3.2917,3.2978,3.3046,3.3091,3.3142,3.3192,3.3231,3.3292,3.3369,3.3385,3.3462,3.3521,3.3617,3.3655,3.3716,3.3708,3.3728,3.3734,3.3739,3.3743,3.3624,3.3729,3.3728,3.3728,3.3728,3.3728,0,3.2961,3.3001,3.3063,3.314,3.3194,3.3198,3.3259,3.3304,3.3372,3.3426,3.3484,3.3568,3.3636,3.3687,3.3758,3.3797,3.3803,3.3814,3.3813,3.3822,3.3744,3.3726,3.3808,3.3808,3.3808,3.3808,3.3808,3.3808,3.3015,3.3097,3.3122,3.3226,3.3266,3.3342,3.3377,3.3424,3.3468,3.3561,3.3619,3.3652,3.3705,3.378,3.3844,3.3857,3.3884,3.3895,3.3909,3.3836,3.3827,3.3819,3.3803,3.39,3.39,3.3983,3.3983,3.3984]}]]